World > North America > United States > Massachusetts

Hampden County, Massachusetts Regional Weather

Lat: 42.16N, Lon: 72.6W
Wx Zone: MAZ011Web Search

Our weather pages are very print friendly and they make great conversation starters.

Feedback


°F Click to change Hampden County hourly weather to Imperial units.Click to change Hampden County hourly weather to Metric units. °C
Hampden County Weather Map
UTC Time: 4/11/2021, 06:29
Your Time:

Hampden County, MA Regional Weather

Expires:202104110700;;368624
ASUS41 KOKX 110614
RWROKX

Regional Weather Roundup
National Weather Service New York NY
200 AM EDT SUN APR 11 2021

Note: "FAIR" indicates few or no clouds below 12,000 feet with no
significant weather and/or obstructions to visibility.


CTZ002-004>006-009-010-012-RIZ004-006-007-MAZ004-011-015-110700-
Southern New England

 In CT
  
CITY           SKY/WX    TMP DP  RH WIND       PRES   REMARKS
Bradley Intl   CLOUDY    54  50  86 S7        29.74F                  
Hartford       CLOUDY    54  50  86 S5        29.74F                  
Danbury        CLOUDY    53  50  89 CALM      29.76F                  
Wtrbury/Oxford CLOUDY    50  50 100 SW5       29.77F FOG              
Norwalk Harbor   N/A     52 N/A N/A SW6         N/A                   
Bridgeport     FOG       53  51  93 SW5       29.76S VSB 1/4          
Meriden        CLOUDY    52  49  89 S6        29.75F                  
New Haven      FOG       54  53  97 CALM      29.76F VSB 1/4          
Chester        FOG       54  54 100 CALM      29.76F VSB<1/4          
Groton         FOG       51  51 100 CALM      29.75F VSB 1/4          
Willimantic    CLOUDY    51  49  92 CALM      29.75F                  

 In RI
  
CITY           SKY/WX    TMP DP  RH WIND       PRES   REMARKS
Providence     CLOUDY    55  53  93 SW5       29.75F                  
Block Island   LGT RAIN  49  49 100 W9        29.76F VSB 1/2          
Westerly       FOG       49  49 100 W3        29.76F VSB 1/4          
 
In MA
  
CITY           SKY/WX    TMP DP  RH WIND       PRES   REMARKS
Boston         CLEAR     60  51  72 SW12      29.72F                  
Worcester      PTCLDY    55  50  83 SW12      29.73F                  
Westfield      MOCLDY    54  51  90 CALM      29.74F                  
Provincetown   PTCLDY    47  46  97 S12       29.74F                  
Nantucket      MOCLDY    46  46 100 SW8       29.76F FOG              
$$


SKY/WX - Weather  TMP - Temperature  DP - Dew Point  RH - Relative Humidity
WIND - Wind Direction/Speed PRES - Barometric Pressure VSB - Visibility
WCI - Wind Chill Index E13G22 Wind - East Wind 13 mph/Gusts of 22 mph